Location: Casco Millpond
(44.5581°N, 87.6111°W)
Time: 22:43:27
(UTC+00:00)

USA 59 Rocket - Pass Details

Date: 16 January 2026
Orbit: 369 x 1672 km, 63.3° (Epoch: 10 February)

Event Time Altitude Azimuth Distance (km) Brightness Sun altitude
Rises 23:18:19 0° 339° (NNW) 2,307 3.0 -7.3°
Maximum altitude 23:22:38 11° 37° (NE) 1,572 1.6 -8.0°
Enters shadow 23:23:43 10° 54° (NE) 1,696 1.7 -8.2°
